Aérodrome :
LOGIN :

S'inscrire | Disclaimer

   EN    FR    IT 

 










Légende :    VFR   VFR Marginal   IFR   IFR Intensif   IFR Très Intensif
Visi : 
Plafond : 
>= 8 km
>= 3000ft
5 à 8 km
1000 à 3000 ft
1500m à 5 km
500 à 1000 ft
800 à 1500m
200 à 500 ft
< 800m
< 200 ft
Symboles :   Orages  Brouillard  Fortes neiges  Fortes précipitations  Vent > 20 kt
SIGMETs :   Divers  Orages  Givrage  Turbulence  Onde Orograph.  Cendres Volcan.







- Altitude de l'aérodrome : 25 ft
- Code IATA : QCY


EGXC - RAF Coningsby

DERNIER METAR :
  • 151050Z 33019KT 9999 FEW010 04/01 Q0997 BLU NOSIG

METARs EXPIRÉS :
  • 150950Z 32015KT 9999 FEW032 03/01 Q0996 BLU TEMPO -SHRA BKN018 WHT
  • 150850Z 32013KT 9999 FEW030 02/00 Q0994 BLU TEMPO -SHRA BKN018 WHT

TAF TAF EGXC
Valide du 15 à 12h jusqu'au 16 à 06h UTC


151041Z 1512/1606 32013KT 9999 FEW030
TEMPO 1512/1522 SCT016
PROB30
TEMPO 1512/1516 33016G26KT 7000 SHRA SCT012 BKN020
Pas de NOTAMs connus pour ce terrain.



MET'MAP, la Météo Aéronautique d'un coup d'oeil ! - Copyright ORBIFLY Décembre 2007 - Disclaimer

ORBIFLY MET'MAP TEAM :

Programmation & Développement : Alexandra Zaïnal
Conception & Développement : Baudouin d'Aumeries
Co-Programmation & Développement : Marc-Olivier Méhu
Soutien technique & logistique : Manuel Goepfert

Contact : metmap@orbifly.com




SOURCES & CREDITS :

   NOAA